Theta_e
331 330 329 328 328 328 329 330 329 328 326 326 326 325 323 320 315 312 313 314 317 321 325 323 324 329 329 330 330 333 333 336 338 333 334 335 335 336 336 336 336 337 337 337 336 336 337 337 338 340 341 341 341 342 342 342 342 341 341 341 340 340 340 338 338 338 338 338 337 337 336 337 337 337
331 332 330 329 328 330 329 329 330 329 328 326 326 324 323 322 319 315 314 314 316 319 322 323 323 326 329 330 331 331 330 340 341 336 333 333 334 335 336 336 336 336 336 335 334 335 335 336 337 337 337 337 338 340 341 341 341 341 340 341 341 340 340 339 338 339 338 337 337 337 337 337 337 336
332 330 329 327 327 328 329 328 329 330 330 327 326 325 324 323 322 319 316 312 316 322 322 323 325 325 326 329 330 329 330 336 338 334 332 332 336 338 336 335 334 334 334 333 333 332 332 333 334 333 334 335 336 337 338 339 340 340 340 340 340 341 341 340 339 339 339 338 338 336 336 337 337 337
331 330 329 329 328 328 328 327 328 329 330 329 327 327 325 323 322 321 317 315 316 320 322 322 324 326 326 327 327 326 328 332 339 332 331 332 340 335 333 337 335 334 333 332 332 331 330 330 331 332 333 334 336 337 337 337 337 337 337 337 338 338 339 338 338 338 338 338 337 337 337 337 337 337
331 330 329 329 329 329 329 328 329 330 330 329 329 329 326 325 323 323 321 318 319 319 320 323 325 325 327 325 325 326 326 328 328 334 331 332 331 331 331 331 334 334 332 331 331 331 330 330 330 331 332 333 335 336 337 336 335 334 334 334 334 334 335 335 334 335 336 336 336 336 336 337 336 336
332 331 329 329 329 330 329 328 329 331 331 330 328 327 328 326 326 325 324 320 318 319 319 321 323 325 326 326 324 326 326 327 329 328 328 328 329 330 330 330 330 334 332 330 328 328 328 329 329 330 330 331 332 333 334 333 331 331 331 330 330 330 329 329 331 333 333 334 335 336 336 336 336 336
331 330 330 330 330 331 329 328 328 330 330 330 329 329 329 328 327 327 325 322 320 319 320 319 320 321 324 325 327 326 328 329 328 327 329 330 331 332 331 330 330 334 332 330 329 329 328 328 328 327 329 329 328 329 328 327 327 326 326 326 327 328 327 327 328 330 331 332 333 334 335 335 335 335
330 330 330 330 330 330 329 328 327 328 330 329 330 328 329 329 328 328 328 325 324 322 321 319 322 322 323 325 326 329 329 328 329 328 329 329 330 330 331 329 329 331 331 330 329 329 328 328 327 326 326 325 324 323 322 322 323 323 323 323 323 323 324 323 324 326 326 327 329 330 332 332 332 330
331 331 331 331 330 329 328 327 327 328 328 328 328 328 327 328 328 329 329 328 325 322 322 321 321 322 323 324 325 326 326 327 326 326 327 329 329 329 329 329 330 332 330 331 330 329 328 328 328 327 326 325 323 322 322 321 321 320 320 320 321 321 322 322 321 322 322 323 323 323 325 327 329 329
333 332 331 331 330 329 329 328 327 327 328 328 327 327 327 328 329 327 327 329 327 325 324 323 323 323 324 323 325 326 326 326 326 327 328 327 326 325 326 327 328 329 329 329 330 330 329 329 328 327 326 324 323 323 322 321 320 319 317 315 314 317 318 319 320 320 320 320 321 323 323 325 326 326
333 333 332 331 331 330 329 329 328 328 328 330 328 328 328 327 327 327 327 328 327 326 325 324 322 323 324 324 324 326 326 325 326 325 325 325 324 322 323 325 326 327 329 330 332 331 331 330 329 322 321 323 324 323 322 321 320 320 319 316 315 314 314 314 316 317 317 318 319 318 318 318 322 324
332 333 333 333 332 331 331 330 330 330 329 330 329 329 329 328 327 327 327 327 326 325 324 324 324 322 321 324 326 325 323 322 321 324 324 322 323 324 321 322 324 324 325 326 326 328 328 327 326 323 324 325 325 324 324 325 325 324 320 318 319 319 317 316 315 315 315 315 314 315 315 315 317 318
333 333 332 332 333 334 337 339 338 336 335 330 329 329 330 329 328 327 327 327 326 325 325 324 323 322 323 324 324 323 322 321 322 322 322 322 323 323 322 323 323 325 324 323 324 324 323 322 323 323 322 322 325 324 326 325 326 324 318 318 319 319 318 317 316 316 316 315 315 314 314 315 316 317
333 333 333 335 340 340 342 342 342 340 339 338 334 331 330 330 328 327 326 325 325 325 324 324 324 323 322 324 324 323 323 324 323 321 319 319 321 318 319 320 320 323 322 320 320 321 321 321 320 319 318 320 322 320 320 319 321 322 320 320 319 319 319 317 316 316 315 315 315 314 313 314 315 315
333 334 334 333 338 341 343 342 344 342 341 340 339 337 335 335 331 328 325 325 326 326 324 324 323 321 322 323 324 324 324 324 323 322 321 320 319 318 315 316 320 320 321 317 314 318 318 318 316 317 318 318 319 319 319 323 323 320 320 319 319 319 318 318 318 318 316 315 314 314 313 314 314 314
333 333 333 334 334 336 338 338 340 343 342 338 337 336 335 334 334 331 328 327 325 325 325 323 323 322 322 323 323 324 322 322 321 321 320 319 319 317 314 313 315 318 321 315 313 316 318 316 316 316 317 318 319 319 320 321 321 320 319 318 318 318 318 317 318 319 318 317 317 317 317 317 317 316
334 334 333 333 333 334 342 341 337 337 340 339 333 335 335 333 329 327 327 328 330 327 325 324 324 324 324 323 325 326 323 320 319 317 316 316 316 317 315 316 316 321 318 314 311 312 315 314 315 314 317 318 318 319 321 320 320 319 318 317 317 317 316 316 316 316 315 315 314 314 314 313 314 314
334 334 333 332 332 332 334 336 336 336 336 338 337 332 331 331 333 329 327 326 327 329 328 326 325 327 327 326 327 329 324 321 321 318 318 318 316 315 317 318 318 318 317 315 311 309 313 315 315 314 316 318 318 318 318 318 317 317 316 315 314 314 314 314 314 314 314 313 313 312 311 310 310 311
335 334 334 333 333 332 331 334 336 335 335 332 330 330 329 330 331 330 330 330 330 330 329 329 329 329 330 329 328 327 323 324 324 323 322 321 319 317 313 312 312 314 316 313 311 309 310 312 312 314 315 316 316 314 313 313 314 314 313 313 314 313 313 313 313 313 313 313 312 311 310 310 309 309
335 335 334 333 333 332 332 335 333 335 332 329 327 328 329 329 329 330 332 329 331 332 331 330 330 330 331 329 329 328 326 324 323 323 319 315 314 312 310 310 310 313 315 316 313 308 308 311 311 312 311 309 307 308 308 311 312 312 312 313 313 312 311 311 312 312 312 312 312 312 310 308 307 307
334 335 334 334 333 333 332 329 324 329 336 328 326 326 327 325 325 327 329 327 325 325 323 322 323 324 322 319 317 316 316 321 319 314 312 312 310 310 308 309 309 310 312 313 314 311 309 310 308 308 306 308 308 308 308 309 312 312 311 311 311 310 310 310 310 311 311 312 312 312 312 310 309 310
334 336 342 339 333 332 330 321 321 325 330 327 326 325 325 325 324 325 329 330 330 323 321 321 319 318 318 318 316 315 314 313 316 314 311 312 310 310 309 306 309 310 313 315 316 306 305 305 303 304 303 307 306 307 307 309 311 313 310 310 311 310 310 310 310 311 311 311 311 311 310 309 309 312
333 333 340 342 336 332 325 317 320 322 327 328 327 326 325 324 324 325 327 328 326 323 323 319 321 321 322 322 321 325 321 318 318 317 316 312 311 311 310 310 307 305 307 312 312 306 302 303 302 303 301 300 303 306 308 310 309 310 311 312 312 312 312 312 310 309 309 310 310 311 310 309 310 313
330 332 335 336 323 320 316 315 316 317 321 327 328 327 325 324 324 325 325 326 323 320 319 315 319 319 318 318 319 318 319 321 324 317 316 314 313 311 309 311 309 305 303 305 310 304 301 301 303 301 302 300 299 302 306 306 308 310 310 310 309 312 315 315 312 311 309 309 310 310 310 309 310 313
330 329 329 327 318 315 314 313 312 312 316 324 328 327 326 325 324 324 322 326 328 317 319 318 317 316 318 316 316 317 316 318 318 317 316 316 314 311 309 306 306 307 308 311 315 306 304 301 302 300 302 301 301 303 304 306 307 308 310 309 308 310 311 312 314 315 313 311 309 309 308 309 310 312
330 328 326 325 318 313 313 312 310 310 313 320 326 323 314 314 319 322 321 320 318 317 316 314 316 314 314 312 313 316 316 318 319 313 310 313 313 313 311 307 305 304 304 309 314 306 303 303 304 304 303 301 302 305 303 303 305 307 307 308 309 310 312 312 313 314 315 316 317 314 315 313 312 312
329 327 326 327 317 312 310 308 308 308 311 317 318 307 307 311 318 324 318 319 315 313 313 313 311 310 310 311 311 312 312 312 311 312 311 310 310 311 315 313 308 307 308 309 313 309 306 302 306 305 305 304 302 303 302 300 301 304 306 307 309 310 312 312 313 314 315 316 317 313 311 311 311 311
328 327 326 324 310 307 304 305 307 309 313 318 306 306 310 313 319 319 318 313 314 314 311 310 309 308 308 308 308 311 313 312 309 310 309 308 308 308 309 308 314 314 311 310 311 309 308 307 307 308 306 303 301 299 299 301 305 305 305 307 309 310 312 313 313 316 317 317 316 316 316 316 317 316
329 322 315 310 307 306 303 305 307 309 310 308 306 306 311 320 316 316 313 311 312 309 310 309 309 308 311 310 311 310 309 312 313 312 310 309 309 308 306 307 311 310 311 312 309 308 307 306 306 305 303 301 300 301 301 301 302 303 306 307 307 309 312 313 313 313 315 315 315 316 315 315 315 316
319 315 312 310 309 307 309 314 316 317 315 311 311 310 315 318 314 312 311 310 310 308 309 310 310 309 309 309 308 310 311 309 309 308 307 306 308 306 306 305 305 305 306 305 307 306 305 304 304 303 302 303 304 302 302 302 302 304 308 307 307 311 313 313 313 313 315 314 315 315 315 316 315 316
321 318 317 316 313 313 314 318 318 319 316 313 312 313 315 314 312 311 309 310 310 310 308 310 309 307 308 309 312 310 308 308 307 306 310 306 304 306 304 303 303 303 304 304 305 306 306 306 305 303 301 302 304 304 304 304 303 303 305 306 308 305 309 312 313 313 313 314 314 315 315 314 314 316
323 320 314 312 316 316 317 318 317 317 316 315 313 312 312 311 313 316 317 318 308 307 308 307 308 311 310 309 308 309 307 305 306 307 307 307 304 305 303 299 299 301 301 302 303 306 312 307 305 304 304 303 302 302 303 302 302 302 303 307 310 310 312 311 311 312 314 313 312 312 312 312 311 311
320 319 318 317 316 316 316 316 315 314 314 314 312 311 309 309 310 312 313 311 310 309 309 310 309 309 308 308 308 308 305 306 306 304 303 304 301 302 299 299 302 299 299 300 303 304 303 303 306 305 303 303 303 303 301 300 303 304 305 307 308 308 310 311 312 312 313 312 310 310 309 309 309 309
318 318 318 318 317 316 316 316 315 314 313 312 310 309 311 310 309 310 310 308 309 310 309 309 308 310 308 307 305 303 304 305 306 303 306 302 302 301 298 299 298 299 301 302 301 301 301 301 302 303 303 305 306 304 304 303 303 305 306 306 307 307 310 311 312 312 312 311 309 307 305 305 307 307
319 318 318 317 317 317 317 317 316 314 312 313 312 310 311 311 311 311 309 309 308 310 309 308 308 308 306 305 302 302 305 306 304 302 302 303 302 299 300 298 299 299 300 300 299 299 299 301 300 300 300 300 301 302 310 308 304 305 306 306 307 308 309 311 312 311 311 310 307 304 303 304 304 306
318 318 317 315 315 315 315 316 314 312 312 312 312 311 310 311 312 312 311 310 310 309 308 307 306 304 303 302 303 304 305 306 303 300 300 299 299 300 299 299 301 300 299 298 299 299 300 300 298 298 297 296 296 295 298 311 314 306 305 305 307 308 310 310 311 310 309 306 305 303 301 301 302 304
316 315 316 315 314 314 314 313 313 313 313 312 312 312 312 311 311 312 311 308 309 310 309 307 305 304 303 303 303 304 304 303 299 299 299 298 298 298 296 298 300 299 298 298 298 300 300 298 299 296 295 295 294 294 297 300 305 308 307 306 307 309 309 309 309 307 306 305 303 303 302 302 302 303
316 315 314 314 314 314 313 313 314 313 313 313 312 310 312 309 309 307 305 307 308 307 307 305 305 304 301 302 299 300 300 299 298 297 299 297 296 295 295 295 296 297 296 298 300 300 299 297 297 297 295 294 293 294 295 299 300 303 308 306 307 309 310 307 306 304 304 304 303 303 304 302 302 303
316 315 315 314 314 313 313 312 313 312 310 309 309 308 307 304 304 303 304 305 306 305 304 304 303 302 301 299 300 299 297 296 296 297 297 296 296 294 296 298 297 297 296 297 298 298 297 296 297 297 295 295 295 296 298 297 299 304 306 306 307 307 307 306 304 304 302 301 302 303 304 305 306 308
315 316 315 314 312 311 310 310 309 308 308 307 307 306 306 305 303 303 302 303 302 303 302 301 301 300 299 298 298 296 295 296 297 296 296 296 297 298 297 298 298 297 295 296 297 297 296 297 298 297 299 300 301 302 302 302 302 304 307 308 305 306 307 305 303 302 301 302 302 301 301 302 300 301
315 314 313 313 310 310 309 308 308 308 306 305 306 306 303 302 301 300 301 301 304 300 300 299 299 298 296 295 296 295 296 297 296 295 298 298 299 299 301 302 296 296 295 296 296 296 297 298 302 307 307 304 303 302 301 300 302 303 305 307 306 305 305 306 303 302 301 303 302 300 299 298 298 298
314 313 310 309 309 309 309 308 307 306 305 305 305 305 303 303 302 308 305 307 302 300 299 298 297 298 296 295 295 298 295 294 294 296 299 296 295 296 298 297 294 295 295 296 296 296 299 300 303 303 300 301 302 302 300 302 301 303 304 305 307 307 306 306 305 306 304 303 301 299 299 298 298 296
313 311 310 310 309 309 308 308 306 305 305 304 304 303 302 302 301 303 301 301 299 300 298 298 297 297 297 296 295 296 294 295 295 294 295 296 296 295 295 295 295 296 296 297 298 298 298 298 298 299 298 298 301 304 301 302 303 303 303 304 306 306 305 306 305 305 306 307 306 304 302 299 296 292
311 310 310 309 309 308 307 307 305 305 305 305 304 303 302 302 301 301 299 298 298 298 298 296 295 296 296 297 296 294 293 294 294 295 296 297 296 295 295 296 298 297 296 297 296 296 297 298 298 298 297 297 299 300 302 302 302 304 304 304 305 302 301 302 304 305 305 306 306 305 305 305 303 301
311 310 310 309 308 308 307 306 306 305 305 304 303 302 302 301 302 300 298 297 296 295 297 296 295 296 296 297 295 295 296 302 297 296 297 296 295 296 296 296 297 297 297 295 294 295 296 296 297 297 296 299 301 300 305 305 305 305 304 303 302 301 300 301 300 300 300 301 303 304 304 304 302 301
Wind_Speed
5 4 5 6 5 4 3 3 4 5 4 5 6 7 8 7 6 3 3 4 5 4 4 3 2 2 2 3 2 3 4 5 4 3 3 4 4 8 11 12 12 12 12 12 13 13 13 13 13 13 13 14 15 15 14 14 14 14 13 12 12 12 12 11 12 12 11 11 11 11 11 11 11 11
5 4 4 4 4 3 3 5 5 5 6 5 6 6 5 6 7 5 5 6 5 4 1 2 1 1 1 2 2 2 3 4 4 3 4 4 5 9 11 11 11 11 12 12 12 13 14 14 14 14 13 13 13 14 14 14 14 14 14 13 13 14 13 12 12 12 12 13 12 12 12 12 11 11
6 5 5 3 4 3 5 4 3 3 5 6 5 5 5 5 5 6 5 3 4 3 3 4 3 2 1 1 0 1 2 3 3 3 3 4 7 9 7 9 10 11 11 12 12 12 13 13 13 13 13 13 12 12 12 13 13 14 14 15 14 14 13 13 12 13 13 13 13 13 13 12 11 11
6 6 5 5 6 4 3 3 3 4 4 4 5 5 5 5 4 5 5 5 5 3 4 3 3 3 2 0 1 3 3 3 5 3 3 3 5 3 3 6 9 10 11 11 13 14 14 13 12 12 12 13 13 13 13 12 12 13 14 14 15 15 15 14 12 12 12 12 12 12 12 12 11 12
6 6 6 6 6 4 5 5 4 4 5 3 4 4 4 5 3 5 4 4 6 4 2 2 3 2 0 2 2 3 3 4 4 3 3 3 4 4 4 4 7 8 9 10 12 13 13 13 14 14 13 13 13 14 14 15 15 14 13 13 14 15 15 15 15 14 13 12 12 12 13 13 13 13
6 5 6 7 6 5 6 5 5 6 5 5 4 3 5 5 5 3 4 4 3 6 2 2 2 2 2 3 1 4 4 4 3 4 4 3 3 4 5 5 5 9 11 10 10 11 12 13 13 13 13 13 13 13 14 14 15 15 15 14 13 13 13 14 14 14 15 14 12 12 12 13 13 13
6 6 7 7 6 4 5 5 5 5 6 5 6 5 4 5 5 4 4 4 4 4 5 2 2 2 1 3 4 2 2 3 3 4 5 5 4 3 4 4 4 7 10 12 12 12 12 10 9 9 10 11 12 12 13 13 14 14 14 13 14 14 13 13 13 13 13 14 13 13 13 12 12 12
7 8 7 7 6 5 6 5 5 5 4 5 6 5 5 5 5 5 5 4 4 4 5 2 3 2 1 3 3 4 3 4 5 3 5 4 5 5 5 3 4 6 9 11 12 12 11 11 10 11 10 8 9 10 11 12 13 13 13 13 13 13 13 13 13 12 12 12 12 13 13 13 14 13
9 9 9 8 6 6 6 5 5 5 5 4 5 6 6 6 5 3 5 5 4 4 6 4 2 1 0 1 2 2 4 4 3 3 4 5 5 6 6 4 4 6 9 9 9 8 7 8 10 10 9 9 8 8 8 9 10 11 12 12 13 13 13 13 13 13 13 12 12 12 13 14 14 15
8 9 9 7 7 7 8 7 5 5 6 5 5 6 5 5 4 4 4 5 6 6 6 5 4 0 1 2 3 2 1 3 5 6 6 5 4 4 7 7 4 3 3 5 7 7 7 9 11 11 11 11 10 9 10 10 9 8 9 10 11 11 12 13 13 13 13 13 12 12 12 13 14 14
8 8 8 7 7 8 8 7 7 7 6 6 6 7 7 5 5 5 5 5 6 6 6 4 3 3 1 1 4 1 0 2 3 4 6 7 4 3 4 7 4 2 4 6 8 7 7 9 8 9 11 11 12 11 10 10 10 10 11 10 9 10 11 12 12 12 12 12 12 13 13 12 13 13
8 8 9 9 8 9 9 9 8 8 8 6 7 6 5 5 5 5 5 5 5 5 5 5 5 1 1 5 3 0 1 2 4 4 5 7 7 6 3 4 4 2 2 5 6 6 5 5 7 9 9 11 12 12 11 11 12 12 12 12 12 11 10 9 10 10 11 12 13 13 13 13 13 12
8 8 9 9 8 8 10 11 10 9 9 7 7 6 6 6 6 6 6 5 5 5 4 4 1 2 3 6 7 5 3 4 7 3 3 5 6 6 6 5 4 5 5 4 4 5 2 3 5 5 6 8 9 9 10 9 11 12 12 12 12 12 11 11 10 10 11 11 11 12 12 12 12 12
8 10 9 8 11 13 14 14 14 14 14 13 10 9 8 8 8 7 7 6 5 5 6 6 5 5 5 7 4 2 3 4 3 4 3 5 6 3 5 6 4 4 4 3 5 5 2 3 4 5 6 7 6 6 6 7 8 10 13 13 13 13 12 11 11 11 11 11 12 11 11 11 12 12
10 8 8 6 9 12 12 12 16 15 15 15 14 13 13 11 10 9 7 7 6 6 7 6 5 4 5 5 3 4 6 4 5 5 3 5 4 4 4 6 6 1 4 2 1 6 1 0 4 6 7 6 6 6 7 9 11 12 13 13 12 12 12 11 10 10 10 11 11 11 12 12 12 12
8 8 8 7 6 7 9 8 9 12 15 16 15 14 13 14 11 6 8 7 6 7 6 5 5 3 4 3 3 5 3 6 4 5 4 4 5 5 4 3 5 3 1 1 3 7 5 1 4 6 7 7 6 7 9 10 11 12 13 13 12 12 12 11 11 11 11 10 11 11 12 12 12 12
9 8 7 7 6 6 11 9 7 7 9 13 16 14 12 9 12 13 12 10 9 8 6 5 6 6 4 4 4 4 3 2 3 3 3 3 4 4 5 5 4 6 0 1 3 5 6 3 4 6 7 6 6 7 8 10 11 12 13 13 14 13 13 13 13 12 12 12 12 12 12 12 13 13
9 10 9 8 7 6 6 6 7 6 7 7 7 6 8 8 11 13 15 13 13 11 8 6 7 5 5 6 5 5 2 2 4 3 5 4 4 4 6 4 4 4 1 3 2 4 6 5 5 6 7 5 6 6 8 10 11 13 14 14 14 14 14 14 14 14 14 13 13 13 14 13 13 13
10 9 8 8 8 6 7 7 8 7 7 6 7 8 8 9 10 10 9 9 8 5 2 4 4 4 4 5 6 4 3 4 5 4 5 4 3 3 1 3 3 5 3 3 2 5 4 3 4 6 6 6 6 6 8 11 13 14 14 13 14 14 15 15 15 15 15 15 15 15 14 14 14 14
9 8 8 8 8 7 7 9 12 9 7 7 7 8 8 8 7 8 8 9 9 8 6 6 5 6 7 5 3 3 3 3 3 1 0 0 0 1 3 5 3 3 3 3 3 2 3 4 3 5 5 3 7 7 5 9 14 14 13 13 13 14 14 15 15 16 16 16 16 16 16 15 15 15
6 6 7 7 7 7 7 8 11 12 11 7 7 7 6 0 3 4 1 3 3 9 10 10 10 5 3 4 6 6 8 4 2 2 1 4 1 2 4 3 2 5 2 2 5 3 4 4 4 5 3 4 7 7 7 7 10 12 12 13 14 15 15 16 16 17 17 17 17 17 17 16 16 16
6 7 13 9 7 7 6 10 13 14 11 7 7 4 0 4 7 4 2 4 5 4 2 1 1 3 4 5 6 6 4 4 4 4 3 3 2 3 3 4 3 4 4 5 3 2 5 3 1 3 4 4 4 5 6 8 9 10 9 12 13 14 15 16 17 17 18 18 18 17 17 16 16 11
6 5 8 12 10 8 9 14 15 16 11 8 8 6 7 9 7 7 7 5 4 3 4 3 2 1 2 1 1 0 2 5 6 5 5 4 4 4 5 5 2 2 4 4 4 3 3 3 4 2 3 3 6 4 6 7 6 6 7 8 9 13 15 16 17 17 18 18 18 17 17 17 14 8
4 5 5 9 12 13 15 16 16 15 15 10 7 6 7 8 8 5 5 4 3 3 3 3 1 1 1 1 0 0 0 2 3 5 4 5 6 5 5 4 3 4 3 2 3 3 3 2 5 2 4 4 6 5 2 5 6 7 7 8 7 11 13 13 12 15 16 16 16 16 17 17 14 7
7 5 4 3 10 15 16 16 16 15 14 9 6 8 9 5 3 6 4 3 7 5 4 3 2 1 1 1 1 2 2 2 2 3 4 5 5 5 5 4 4 5 6 6 5 1 3 2 4 2 3 3 4 5 5 4 6 7 8 7 8 9 8 8 7 8 11 14 14 16 16 16 16 11
6 6 5 5 10 15 16 15 14 13 11 9 5 5 6 9 9 5 4 5 4 4 4 3 2 1 0 1 1 0 0 1 3 3 3 4 4 5 5 5 5 3 6 7 5 3 2 3 6 5 4 3 6 5 6 6 7 9 7 6 7 8 8 9 8 9 8 8 8 8 11 14 15 16
7 6 6 6 11 13 14 13 12 11 11 8 5 8 8 7 7 6 5 4 5 5 3 2 2 2 2 0 1 1 1 2 2 3 3 3 3 3 3 4 5 7 7 7 5 1 3 4 3 5 7 5 6 6 5 5 6 5 7 7 7 7 8 7 8 9 8 8 8 12 13 13 15 16
7 7 6 7 13 13 13 12 11 11 10 6 8 8 6 7 6 4 5 4 5 3 3 3 3 1 1 1 2 1 2 3 3 4 3 3 3 3 4 3 3 5 6 6 6 3 5 6 6 6 6 6 6 7 8 6 7 7 8 8 7 8 8 7 7 7 8 8 7 7 7 8 8 8
7 8 11 13 15 13 11 11 10 7 5 6 6 6 7 9 4 5 5 5 5 5 5 3 1 2 1 3 2 3 3 2 1 1 3 2 2 3 3 3 3 3 3 3 4 4 3 5 7 6 4 3 5 6 5 8 6 8 8 8 8 7 7 7 7 8 8 7 7 7 8 8 9 8
12 13 14 14 13 12 11 8 5 5 4 4 5 6 8 5 5 5 5 4 5 6 4 3 4 2 1 1 2 2 1 1 4 1 1 3 5 5 5 6 7 6 5 3 4 5 4 4 5 4 5 6 6 7 7 7 8 8 8 8 8 8 8 7 6 6 7 8 9 9 9 8 9 9
9 9 9 7 8 8 9 7 6 5 6 5 4 4 4 3 4 4 5 6 7 4 4 3 2 1 2 1 0 1 2 3 3 1 1 2 4 3 2 1 5 6 7 6 5 5 4 5 4 3 4 6 6 7 8 6 7 9 9 8 6 7 7 7 7 7 7 8 8 9 9 9 9 10
8 8 10 11 8 7 6 5 4 4 4 4 4 4 3 3 3 3 5 4 3 3 3 3 2 0 0 1 3 3 2 3 3 0 1 0 3 2 1 2 3 3 6 7 7 7 5 4 4 4 5 6 7 8 6 5 8 9 9 8 7 7 7 8 8 9 8 8 9 9 9 9 11 10
7 7 6 7 6 6 6 6 5 5 4 4 4 4 4 4 4 5 6 6 5 5 4 3 2 2 1 4 3 2 3 3 2 0 1 0 1 2 1 2 5 5 6 7 6 7 7 7 4 4 6 6 7 8 7 8 8 7 7 8 7 7 7 7 7 9 9 9 10 10 10 10 10 10
10 9 8 7 7 7 6 6 6 6 5 5 5 4 4 5 5 6 5 5 5 4 4 4 3 4 3 4 3 3 3 3 2 0 1 1 0 0 1 3 5 5 3 6 6 7 6 6 6 7 5 4 5 7 8 8 9 9 7 7 6 8 8 7 7 8 8 8 11 12 12 12 10 8
8 8 7 6 5 6 6 6 6 5 5 5 5 5 5 5 6 6 5 5 4 4 5 4 5 3 3 6 5 3 2 2 2 2 0 0 1 2 2 3 5 6 6 6 7 6 4 6 6 7 7 7 9 7 7 10 7 8 7 6 6 7 7 7 7 8 9 9 8 12 14 13 12 8
7 7 8 7 6 6 6 5 5 5 6 5 5 5 5 6 5 6 6 5 6 5 5 5 4 5 6 6 3 2 1 0 1 1 4 2 1 2 1 3 4 5 5 6 6 6 5 6 5 5 7 7 7 7 9 5 7 6 8 8 7 6 7 7 7 7 9 10 8 9 13 15 15 11
7 6 7 7 6 6 6 6 6 6 6 6 6 6 6 6 6 6 4 4 5 5 5 5 6 6 5 3 2 1 0 1 1 1 2 2 1 1 3 4 4 4 4 6 6 6 3 4 6 4 5 7 6 8 10 6 8 6 6 7 6 7 8 8 8 9 9 9 10 9 12 14 16 15
8 7 6 6 7 6 5 6 6 5 5 6 6 5 5 4 4 3 3 5 5 5 5 5 5 3 3 3 2 1 1 1 1 1 2 1 1 3 3 4 6 6 6 6 6 6 5 5 6 5 3 5 7 9 9 7 6 8 4 2 7 9 7 7 8 9 10 9 10 10 9 13 15 15
8 8 7 7 6 6 6 6 6 7 6 6 5 6 5 3 4 4 5 5 5 5 5 4 4 4 4 3 2 2 1 1 1 1 1 1 1 3 4 4 5 5 4 6 6 6 5 6 6 5 4 5 6 8 8 8 9 11 11 11 7 7 7 7 9 9 9 11 11 10 10 11 16 20
6 7 7 6 6 6 6 6 6 6 7 6 6 6 6 6 6 6 5 4 4 4 5 4 3 3 2 3 3 2 1 2 2 2 2 2 3 3 3 3 4 5 4 6 6 7 7 7 7 6 6 7 8 9 8 8 8 8 9 10 10 7 7 5 7 9 11 10 11 12 14 12 13 11
6 7 6 6 6 6 7 7 7 6 6 6 6 5 5 6 6 6 6 6 4 5 3 4 4 4 4 5 4 5 5 3 2 1 2 2 2 2 3 3 3 3 4 6 6 7 8 8 9 14 10 6 7 6 3 4 8 9 9 9 9 7 8 6 6 7 9 11 11 12 13 14 14 14
7 7 6 6 7 7 7 7 6 6 6 6 6 6 5 5 6 6 6 4 4 4 5 5 4 5 5 5 5 4 4 3 2 1 1 1 2 3 3 3 4 5 4 6 7 7 9 8 8 7 5 6 4 4 5 7 9 9 9 9 9 8 10 13 13 11 9 9 10 12 13 14 13 14
6 6 7 6 6 7 7 7 7 7 7 6 6 6 6 6 4 5 5 6 5 5 6 6 5 6 6 5 6 5 4 3 3 2 1 1 1 2 3 5 4 5 5 6 6 7 8 8 6 6 7 4 2 1 5 8 8 8 9 9 10 9 10 12 12 13 14 14 12 10 9 11 14 15
6 7 7 7 7 7 7 7 7 7 7 7 6 6 6 7 7 7 7 7 7 7 6 6 5 6 6 6 5 4 3 3 3 1 0 1 2 2 3 4 4 4 5 5 6 7 7 7 6 5 6 6 3 3 6 7 8 8 8 8 8 9 11 10 10 10 10 10 13 14 17 17 16 20
6 7 7 7 7 7 7 7 7 7 7 6 6 6 6 7 7 7 6 6 7 6 5 5 5 5 5 5 6 4 3 3 2 1 1 1 1 2 3 3 4 4 5 5 5 7 7 7 8 6 4 5 3 3 5 5 7 8 9 8 10 9 9 9 11 12 12 10 9 13 16 19 24 26
Wind_Direction
196 200 192 195 201 211 195 182 179 179 163 172 169 168 166 170 157 190 239 262 228 268 202 194 277 237 253 238 204 195 209 233 240 240 242 247 254 260 262 261 261 258 256 254 257 260 262 263 263 260 257 259 260 262 262 264 267 268 265 260 256 254 256 258 263 264 262 257 256 260 263 266 272 280
198 198 195 201 205 209 188 191 184 170 172 165 175 182 174 156 169 179 187 250 215 239 273 208 239 317 314 185 197 179 225 237 241 242 242 244 247 252 254 259 265 267 266 262 259 259 263 267 269 270 268 264 259 256 256 258 261 263 266 265 261 257 255 254 254 255 257 261 258 255 256 260 264 268
196 201 197 195 217 201 206 202 177 175 161 173 173 177 153 181 169 173 173 219 279 181 209 259 236 241 272 247 284 324 255 251 239 236 244 244 246 253 261 258 257 261 264 265 264 258 255 256 260 265 267 268 265 258 255 255 257 260 265 268 268 265 259 254 252 253 253 255 254 258 259 257 255 255
200 202 199 194 206 203 205 206 185 177 183 168 168 169 174 187 180 157 161 187 251 226 210 240 278 229 250 343 284 294 296 283 284 261 260 266 277 275 264 266 258 255 259 263 267 273 275 273 267 262 265 269 273 275 272 267 262 258 259 263 266 269 270 268 260 253 250 251 254 255 256 256 255 254
198 201 204 204 208 193 197 200 190 186 188 172 176 167 163 174 169 156 167 192 245 303 251 246 253 295 305 318 229 247 275 299 304 303 290 304 309 301 289 284 283 274 257 251 257 260 263 267 270 271 269 266 268 272 275 278 278 274 266 260 260 262 266 269 273 273 265 256 253 253 254 252 255 259
202 191 204 212 203 195 199 194 192 193 187 181 176 176 175 186 189 197 156 206 191 246 321 293 279 278 211 244 241 203 260 279 292 307 307 289 256 271 286 290 284 283 285 280 263 251 250 255 261 259 257 258 261 263 267 270 273 275 275 273 266 260 259 262 264 269 274 275 267 256 249 251 255 257
192 198 208 213 199 182 198 202 198 192 193 182 182 188 183 192 198 193 189 155 213 242 267 267 308 277 268 208 271 281 246 271 300 305 292 291 302 280 271 275 277 285 290 292 295 296 296 289 271 254 252 258 262 265 267 269 272 274 274 274 274 273 269 265 262 261 264 268 273 276 272 268 260 257
194 207 209 216 199 183 191 197 197 200 191 183 185 188 193 196 199 196 194 199 182 205 237 290 211 270 199 286 286 296 307 301 300 282 290 297 284 285 283 273 271 273 274 280 285 291 297 300 299 299 290 269 255 256 263 270 273 273 275 276 275 275 276 276 274 271 268 266 267 268 271 274 273 265
199 206 213 212 195 186 192 195 198 187 189 182 183 196 197 198 206 191 190 206 197 194 220 253 248 216 315 264 288 264 278 301 297 289 274 276 288 296 286 281 273 283 298 302 303 301 304 307 309 308 306 307 306 294 276 262 257 261 267 268 268 270 273 274 275 275 273 268 261 259 261 262 266 270
200 206 211 210 194 191 196 200 191 185 191 184 191 199 203 202 192 194 203 202 208 213 231 223 280 145 210 310 274 253 206 277 295 300 290 295 286 287 301 296 303 317 312 313 316 323 327 323 319 319 320 317 311 302 297 294 290 276 254 250 254 257 258 262 265 266 267 268 268 264 259 258 261 263
202 200 206 207 196 198 202 195 190 188 190 193 201 200 201 196 190 201 209 205 209 216 231 243 223 262 304 230 280 313 275 245 236 264 294 293 283 272 261 286 292 291 298 289 287 290 299 308 312 311 310 309 308 306 302 300 296 295 295 287 269 251 248 251 255 259 262 264 266 267 265 263 263 262
205 201 206 211 204 204 202 197 192 183 195 192 208 204 195 191 191 208 211 203 204 210 219 229 238 177 326 309 261 324 46 327 301 233 229 261 279 276 260 239 265 298 302 287 293 300 317 314 308 307 306 303 301 302 306 306 304 301 298 297 297 296 286 268 258 257 258 259 258 258 260 261 261 261
207 205 210 213 209 205 204 200 191 189 185 184 200 206 193 193 194 211 209 204 196 206 211 242 205 222 221 244 267 288 268 249 259 254 184 246 258 270 292 274 225 230 247 258 259 277 229 262 283 291 302 297 300 302 304 304 304 307 311 312 308 303 300 295 286 273 263 256 250 248 250 253 256 257
211 214 214 215 208 204 205 204 200 201 199 197 196 193 192 193 201 209 209 199 199 201 211 220 218 234 240 250 252 256 258 250 260 274 238 245 261 271 265 284 253 200 190 236 279 276 227 206 271 287 281 284 296 295 305 296 302 307 305 303 302 299 294 287 283 282 282 281 280 275 265 256 253 253
212 217 216 214 212 209 208 209 207 205 203 204 207 201 195 197 196 205 201 209 200 204 213 207 203 213 248 270 284 267 271 261 251 255 246 251 268 266 282 292 303 219 175 215 310 299 269 159 290 286 283 282 291 291 286 294 304 302 299 298 296 294 294 293 287 280 277 278 277 274 271 267 261 254
211 211 213 211 205 209 209 207 212 211 207 206 209 210 207 209 201 140 174 182 182 195 203 198 211 190 225 244 260 266 244 259 257 247 244 250 256 266 262 249 263 258 79 34 303 283 292 238 242 278 281 284 280 280 284 294 294 293 295 295 294 293 295 297 298 296 290 282 276 273 271 267 264 260
209 206 208 207 203 210 212 208 205 205 211 206 208 212 211 193 159 162 160 167 176 176 184 192 205 200 201 210 234 221 214 198 248 269 265 249 240 238 248 253 267 292 70 8 278 278 290 298 282 276 279 283 286 290 293 286 285 289 291 291 292 296 299 297 294 290 288 288 286 282 276 272 268 267
208 208 203 199 205 201 201 203 202 202 205 202 189 173 176 186 187 181 180 172 167 169 173 180 216 214 169 212 227 236 188 206 251 252 264 258 264 244 237 243 256 275 337 274 254 284 286 283 292 283 280 280 284 277 276 282 286 285 284 286 291 293 291 290 289 289 289 286 284 281 278 274 270 265
211 202 198 198 203 191 193 200 200 197 193 175 176 183 188 188 195 195 193 197 182 148 120 181 215 236 238 239 237 245 208 209 221 221 238 250 246 261 303 324 259 275 247 175 156 253 262 278 287 277 282 287 281 273 286 287 282 279 280 283 284 284 284 284 284 284 284 283 281 278 276 274 271 267
208 198 189 190 194 192 194 199 198 191 171 170 179 189 197 203 200 198 203 179 152 146 186 203 206 221 230 228 226 216 199 210 217 216 286 75 145 345 321 280 291 277 262 166 175 239 263 248 241 272 274 289 287 282 277 272 271 275 279 278 279 280 280 281 280 280 280 280 279 278 276 273 271 269
193 192 191 190 191 188 196 181 172 169 158 169 175 189 205 221 6 295 329 59 118 166 196 218 225 242 281 268 257 250 234 215 163 132 18 298 221 302 290 287 295 269 269 262 191 202 263 256 222 275 283 279 280 290 288 285 282 285 288 287 285 284 283 282 280 279 278 278 277 276 275 273 271 269
191 198 197 184 181 181 180 161 157 159 156 159 156 135 62 259 219 211 128 176 210 215 224 317 264 238 254 254 250 240 243 133 162 136 219 227 152 226 223 246 233 279 299 257 169 146 238 278 260 260 287 308 264 268 276 282 290 296 293 285 279 278 278 277 277 276 275 274 273 273 272 272 273 277
191 198 198 187 181 174 161 157 158 161 157 154 157 169 205 225 210 186 160 175 150 116 109 84 95 92 205 198 198 187 128 165 177 183 204 165 160 205 220 233 267 319 280 266 161 201 282 308 268 232 320 300 274 263 262 277 287 291 290 288 288 278 273 272 271 270 270 269 269 269 269 268 270 270
194 189 197 197 176 159 158 166 166 166 166 164 172 181 197 200 206 177 156 162 133 125 131 150 151 186 244 262 301 345 278 247 207 187 186 175 171 183 215 229 222 240 239 275 167 207 264 232 274 202 203 266 296 290 301 290 277 279 279 283 281 280 279 277 272 269 264 263 264 264 264 265 264 263
171 165 165 140 157 160 169 174 179 180 181 173 176 186 200 198 150 137 124 143 132 134 145 151 159 187 187 209 215 219 240 250 192 179 191 181 179 183 209 233 241 239 250 254 238 169 256 225 266 304 280 185 244 292 279 282 272 266 268 269 277 281 282 279 277 280 278 271 263 261 263 263 262 253
160 159 159 160 174 170 175 180 183 186 183 171 167 174 133 122 136 141 148 128 120 133 130 142 161 178 203 265 254 231 262 246 196 202 205 203 204 215 210 206 223 242 268 265 246 188 229 284 250 266 266 270 273 246 291 287 278 280 271 265 257 265 272 281 285 283 278 275 276 263 260 260 260 258
167 148 158 169 172 179 179 185 185 174 163 149 147 142 140 148 147 127 117 138 133 142 149 143 193 202 194 235 321 289 289 278 247 233 231 237 234 248 246 230 207 223 252 273 287 221 175 242 255 250 266 261 277 287 273 274 281 287 294 276 273 271 267 265 269 272 275 273 271 272 271 267 265 264
146 153 164 161 165 175 181 176 162 159 163 158 147 148 156 150 139 132 143 143 156 144 148 186 204 227 203 191 239 243 234 240 242 245 246 256 248 244 265 267 253 236 249 259 275 247 192 225 261 254 238 252 265 273 278 264 272 274 283 287 279 275 276 273 271 272 273 273 276 279 283 285 277 274
157 166 158 154 167 171 151 138 137 140 144 141 153 147 154 151 145 153 159 152 141 166 196 195 185 232 212 206 210 229 241 262 266 257 286 274 259 247 235 252 261 272 280 287 278 269 234 222 245 267 274 229 230 252 249 267 278 284 279 291 294 283 285 277 268 269 276 279 278 277 274 277 282 276
149 155 162 164 156 136 136 135 149 166 167 158 144 150 164 159 171 160 146 160 170 198 191 170 209 201 173 218 236 246 250 243 249 216 288 332 319 333 350 351 325 314 301 283 275 274 273 254 248 253 269 274 250 258 263 276 282 276 282 273 270 291 271 268 269 273 281 285 286 285 279 273 270 277
143 145 138 130 132 128 137 135 134 137 137 138 157 173 181 169 161 160 173 178 189 180 165 180 185 210 229 251 276 253 216 235 254 182 238 280 273 301 350 341 301 304 303 310 303 284 269 266 264 232 252 270 280 263 266 256 269 277 278 275 278 276 282 289 288 284 280 277 276 277 281 281 277 270
125 120 111 109 109 120 127 127 131 150 158 170 169 166 155 153 162 177 181 170 147 148 159 161 166 187 181 285 267 273 238 229 263 201 215 184 299 318 10 358 291 292 305 308 309 306 303 280 271 254 221 240 260 278 281 263 261 266 270 275 272 269 273 279 287 290 285 284 284 278 277 277 281 283
110 112 124 132 132 145 147 148 149 155 154 162 153 147 145 149 168 176 183 180 180 174 156 171 190 230 233 259 272 245 245 255 264 65 2 323 202 307 112 219 270 291 296 302 302 302 305 307 300 280 258 252 238 247 262 284 271 251 258 275 285 282 283 278 278 285 294 294 285 285 285 279 278 276
132 147 145 161 157 154 151 155 159 164 168 161 160 165 162 169 179 195 199 195 174 170 177 182 179 222 225 257 231 208 225 282 293 56 145 268 237 266 289 297 286 282 276 278 289 290 303 305 317 317 308 289 250 228 224 234 257 275 270 273 276 281 282 286 283 281 282 281 292 296 291 289 280 270
139 151 154 156 161 158 153 166 174 168 167 183 174 180 181 191 195 198 198 196 173 177 184 194 205 210 205 219 209 205 216 228 290 340 82 229 206 217 253 274 288 293 295 301 299 298 307 307 326 329 326 331 335 310 217 207 250 268 286 277 255 263 279 284 288 289 291 293 296 292 294 289 286 277
159 164 157 160 168 158 164 177 165 168 181 187 189 177 186 206 205 192 213 189 178 178 180 191 192 192 200 207 198 192 178 144 313 303 314 313 314 309 298 264 270 282 288 286 290 295 307 305 326 333 326 322 328 318 315 249 203 252 287 293 294 288 289 292 290 291 296 295 293 294 295 296 296 295
155 167 164 167 164 167 174 168 172 185 189 192 191 193 197 198 200 210 201 156 176 182 186 174 182 191 191 178 158 124 110 117 270 277 268 290 318 284 303 296 290 292 301 292 287 294 300 302 311 317 313 314 312 302 287 292 289 262 213 269 291 297 295 297 301 299 293 291 293 289 289 295 296 298
162 163 167 162 166 174 169 168 175 188 198 202 198 193 197 195 189 181 149 153 171 168 170 170 176 166 157 149 143 156 137 178 219 262 259 302 319 307 273 279 292 295 290 289 296 294 296 282 288 283 280 289 302 301 301 299 313 301 194 211 289 296 298 301 302 301 299 295 290 289 287 289 291 298
160 167 167 167 171 166 168 180 178 186 188 178 166 156 145 137 134 141 154 164 161 154 148 152 166 169 164 160 162 171 178 172 188 223 271 284 250 262 290 289 297 296 310 306 305 302 305 300 292 291 278 280 276 270 275 285 286 286 301 301 279 290 294 298 297 298 299 302 297 290 278 271 275 279
167 161 160 159 163 162 166 160 162 161 156 154 143 144 141 145 151 150 151 150 149 158 162 171 161 157 159 160 168 151 160 202 206 214 231 262 273 262 266 276 274 288 305 301 310 309 311 300 299 301 301 280 262 261 259 262 264 279 281 289 272 253 274 299 298 303 302 297 301 305 304 306 303 306
158 159 167 154 153 160 156 158 154 149 138 136 133 134 131 140 145 161 162 166 162 159 166 179 173 179 186 182 176 163 176 195 199 212 230 239 265 279 291 301 306 302 306 301 299 302 297 287 294 303 301 282 279 283 305 317 310 308 309 305 306 288 261 257 282 299 295 302 308 308 309 313 313 312
162 162 157 156 158 163 152 147 150 142 137 136 133 137 146 160 174 175 173 171 169 178 181 181 192 194 197 192 176 167 159 171 188 223 230 231 303 310 308 315 302 302 304 294 292 285 286 296 307 313 309 313 312 354 322 295 296 303 301 302 302 303 315 314 307 294 285 297 312 314 314 313 315 309
159 155 158 166 159 153 151 148 150 145 144 136 139 149 160 177 180 175 181 181 189 188 196 205 201 195 198 187 167 158 148 169 194 209 231 243 247 279 294 292 280 277 270 274 278 281 290 299 309 319 320 320 288 310 295 298 293 294 300 305 309 320 317 314 310 307 305 302 294 288 297 305 314 313
161 157 161 162 158 155 152 151 150 147 142 146 152 158 168 174 187 197 189 193 190 201 206 201 193 189 189 175 147 131 155 190 186 174 231 264 269 265 264 277 286 289 290 290 304 307 307 311 309 322 320 305 295 302 297 305 303 298 297 297 308 320 318 321 319 315 310 307 311 308 306 306 309 310
161 163 160 165 162 156 155 154 150 144 139 142 151 168 182 186 191 191 198 196 199 199 193 192 189 195 171 148 133 158 198 184 149 169 187 244 270 273 272 278 290 302 303 302 316 309 315 313 311 316 290 286 278 270 287 297 301 304 305 313 317 319 318 321 325 323 321 317 314 313 310 316 326 324